Location: Sobotiste
(48.7170°N, 17.4000°E)
Time: 06:31:14
(UTC+02:00)

CAS-6 - Pass Details

Date: 15 March 2026
Orbit: 601 x 618 km, 97.8° (Epoch: 15 April)

Event Time Altitude Azimuth Distance (km) Brightness Sun altitude
Exits shadow 22:22:50 12° 328° (NNW) 1,853 ? -38.8°
Drops below altitude 10° 22:23:06 10° 330° (NNW) 1,956 ? -38.8°
Sets 22:25:27 0° 340° (NNW) 2,866 ? -39.0°
